Home > Weather > Kleppestø > Past weeks

Flag for Norway Past Weather in Kleppestø, Norway — Yesterday and Last 2 Weeks

Now
59 °F

Cool.


Feels Like: 59 °F
Forecast: 58 / 63 °F
Wind: 2 mph from Southeast

Location: Bergen / Florida

Current Time: Jul 26, 2016 at 10:30:45 AM

Latest Report: Jul 26, 2016 at 9:00 AM


Visibility: N/A

Pressure: 29.90 "Hg

Humidity: 81%

Dew Point: 53 °F

Location of KleppestøLocation

Past Weather in Kleppestø — Graph

°F

Kleppestø Temperature Yesterday

Maximum temperature yesterday: 69 °F (at 2:00 PM)
Minimum temperature yesterday: 61 °F (at 11:00 PM)
Average temperature yesterday: 64 °F

High & Low Weather Summary for the Past Weeks

 TemperatureHumidityPressure
High81 °F (Jul 21, 11:00 AM)91% (Jul 20, 8:00 AM)30.14 "Hg (Jul 20, 8:00 AM)
Low51 °F (Jul 17, 4:00 AM)35% (Jul 21, 10:00 AM)29.41 "Hg (Jul 11, 9:00 AM)
Average61 °F77%29.92 "Hg
* Reported Jul 11 9:00 AM — Jul 26 9:00 AM, Kleppestø, Weather by CustomWeather, © 2016

Note: Actual official high and low records may vary slightly from our data, if they occured in-between our weather recording intervals... More about our weather records

Advertising

Kleppestø Weather History for the Previous 24 Hours

Scroll right to see more
 ConditionsComfort  
Time TempWeatherWind HumidityBarometerVisibility
9:00 AM
Tue, Jul 26
59 °FCool.2 mph81%29.90 "HgN/A
8:00 AM58 °FPartly sunny.2 mph81%29.90 "Hg19 mi
7:00 AM58 °FCool.3 mph80%29.90 "HgN/A
6:00 AM58 °FCool.2 mph82%29.90 "HgN/A
5:00 AM58 °FCool.1 mph81%29.90 "HgN/A
4:00 AM59 °FCool.3 mph81%29.90 "HgN/A
3:00 AM59 °FCool.3 mph81%29.91 "HgN/A
2:00 AM59 °FCool.2 mph81%29.90 "HgN/A
1:00 AM59 °FCool.2 mph80%29.91 "HgN/A
12:00 AM60 °FCool.3 mph79%29.91 "HgN/A
11:00 PM
Mon, Jul 25
61 °FOvercast.3 mph80%29.90 "Hg7 mi
10:00 PM62 °FCool.5 mph81%29.90 "HgN/A
9:00 PM62 °FCool.3 mph81%29.89 "HgN/A
8:00 PM62 °FSprinkles. Low clouds.3 mph84%29.88 "Hg12 mi
7:00 PM63 °FMild.7 mph83%29.85 "HgN/A
6:00 PM66 °FMild.5 mph75%29.85 "HgN/A
5:00 PM67 °FLow clouds.5 mph78%29.86 "Hg12 mi
4:00 PM66 °FMild.3 mph83%29.86 "HgN/A
3:00 PM67 °FMild.5 mph82%29.88 "HgN/A
2:00 PM69 °FPartly sunny.5 mph66%29.87 "Hg19 mi
1:00 PM67 °FMild.1 mph81%29.88 "HgN/A
12:00 PM66 °FMild.2 mph77%29.89 "HgN/A
11:00 AM68 °FOvercast.1 mph70%29.90 "Hg19 mi
10:00 AM66 °FMild.No wind78%29.91 "HgN/A
Weather by CustomWeather, © 2016

See weather overviewHow to use our weather pages